SL-16 DEB, 22327

Orbit data source: Space-Track

SL-16 DEB, 22327 is space debris in LEO originally from a launch on Fri, 25 Dec 1992 UTC launched from the Tyuratam Missile And Space Complex (TTMTR). Debris objects in space refer to the collection of defunct objects orbiting the Earth. Examples of debris include non-operational satellites, rocket bodies, and fragments generated from explosions, collisions, or faulty payload assembly.

Loading next visibility...
Identifier
22327, 1992-093Q
Orbit
LEO
Country
Flag of CISCIS
Related business
Manufacturer
Unknown
Mission
Spacecraft
Bus & Motor
Unknown
Mass
Unknown
Launch date (UTC)
1992-12-25 (33 years ago)
Launch vehicle
Unknown
Launch site
Tyuratam Missile And Space Complex (TTMTR)
Object type
Payload
Rocket body
Debris
Shape & HBR
Unknown shape, 0.6 m
Radar Cross Section
Medium (>0.1 m² and <1 m²)

Expand to show TLE details & history
Last TLE update: 3 days ago

TLE from 3 days ago
0 SL-16 DEB
1 22327U 92093Q   26170.90247854  .00005175  00000-0  38853-3 0  9992
2 22327  71.1132 341.8919 0055442 309.2679 211.4955 15.01912794763747
Epoch: 2026-06-19T21:39Z
TLE epoch observation values (Epoch: 2026-06-19T21:39:34.145Z)
Latitude
18.47806°
Longitude
-77.65403°
Altitude
595.831 km
Speed
7.546 km/s
True Right ascension
10h 21m 27s
True Declination
18° 22' 21"
Sunlit
Object was in daylight at epoch
Visualization orbit readout
Latitude
Unknown
Longitude
Unknown
Altitude
Unknown
Speed
Unknown
Apparent Right ascension
Unknown
Apparent Declination
Unknown
Sunlit
N/A
Visualization observer readout
Local Sidereal Time
01:06:54
Azimuth
Unknown
Elevation
Unknown
Doppler factor
Unknown
Orbital elements
Apogee altitude
597.287 km
Perigee altitude
520.367 km
Semi-major axis
6,936.964 km
Eccentricity
0.00554
Inclination
71.1132°
RAAN
341.8919°
Arg. of periapsis
309.2679°
True anomaly
211.16554°
Mean anomaly
211.4955°
Eccentric anomaly
211.33033°
Mean motion
3.75655 °/min
Orbital period
95.83 mins
BSTAR
0.00038853
Loading maneuver chart data...
Computing Atmospheric mass density...
Loading historical data...
Loading historical data...
Loading historical data...
Loading historical data...
Loading historical data...
Loading historical data...
Loading historical data...

Documentation

Showing up to 5 results
|